Regional Weather Roundup
Issued by NWS New Orleans/Baton Rouge, LA

Home | Current Version | Previous Version | Text Only | Print | Product List | Glossary On
Versions: 1 2 3 4 5 6 7 8 9 10 11 12 13 14 15 16 17 18 19 20 21 22 23 24 25 26 27 28 29 30 31 32 33 34 35 36 37 38 39 40 41 42 43 44 45 46 47 48 49 50
024
ASUS44 KLIX 300011
RWRLIX
NEW ORLEANS REGIONAL WEATHER ROUNDUP
NATIONAL WEATHER SERVICE NEW ORLEANS LA
700 PM CDT FRI JUL 29 2016

NOTE: "FAIR" INDICATES FEW OR NO CLOUDS BELOW 12,000 FEET WITH NO
      SIGNIFICANT WEATHER AND/OR OBSTRUCTIONS TO VISIBILITY.
      SKY/WX - SKY CONDITION AND SIGNIFICANT WEATHER.
      TMP - AIR TEMPERATURE.     DP    - DEWPOINT TEMPERATURE.
      RH  - RELATIVE HUMIDITY.   PRES  - PRESSURE.
      HI  - HEAT INDEX.          WCI   - WIND CHILL INDEX.

*  THESE STATIONS ARE NOT NWS OR FAA STATIONS AND ARE NOT UNDER
   NWS QUALITY CONTROL.

LAZ038-040-048-061>063-065>067-069-300100-
SOUTHEAST LOUISIANA

CITY           SKY/WX    TMP DP  RH WIND       PRES   REMARKS
N.O. AUDUBON     N/A     78  76  92 MISG        N/A
6HR MIN TEMP:  76; 6HR MAX TEMP:  98; 6HR PCP:  1.79;

N.O. INTL ARPT CLOUDY    81  73  76 S9        29.98F
6HR MIN TEMP:  80; 6HR MAX TEMP:  95; 6HR PCP: TRACE;

N.O. LAKEFRONT MOSUNNY   83  73  72 S7        29.99S
6HR MIN TEMP:  83; 6HR MAX TEMP:  92;

N.O. DOWNTOWN*   N/A     83  77  82 S6        30.00S
6HR MIN TEMP:  77; 6HR MAX TEMP:  94;

RESERVE*         N/A     80  75  85 S5        29.99S
6HR MIN TEMP:  79; 6HR MAX TEMP:  94; 6HR PCP:  0.07;

SLIDELL        MOSUNNY   87  72  60 S5        29.97F
6HR MIN TEMP:  87; 6HR MAX TEMP:  93; 6HR PCP: TRACE;

BATON ROUGE    CLOUDY    88  74  63 N3        29.98S HX  96
6HR MIN TEMP:  88; 6HR MAX TEMP:  93; 6HR PCP: TRACE;

BOOTHVILLE     CLEAR     85  76  74 S7        30.00F
6HR MIN TEMP:  82; 6HR MAX TEMP:  89;

BELLE CHASSE   PTSUNNY   80  74  81 W5        30.00S
6HR MIN TEMP:  80; 6HR MAX TEMP:  92;

BOGALUSA*        N/A     88  72  58 N3        29.99F
6HR MIN TEMP:  87; 6HR MAX TEMP:  94;

GALLIANO*      MOCLDY    79  74  84 CALM      30.00S
6HR MIN TEMP:  79; 6HR MAX TEMP:  94; 6HR PCP:  0.14;

NEW ROADS*       N/A     81  75  81 SW5       29.98S
6HR MIN TEMP:  81; 6HR MAX TEMP:  90;

GONZALES*        N/A     83  75  76 S8        29.98R
6HR MIN TEMP:  83; 6HR MAX TEMP:  92; 6HR PCP:  0.02;

HAMMOND*       CLOUDY    88  72  58 CALM      29.98R
HOUMA*         SUNNY     84  77  79 MISG        N/A
PORT FOURCHON* CLEAR     88  72  58 S3        30.00S

$$

MSZ070-080>082-300100-
SOUTHERN MISSISSIPPI

CITY           SKY/WX    TMP DP  RH WIND       PRES   REMARKS
MCCOMB         SUNNY     81  72  74 CALM      30.00S
6HR MIN TEMP:  74; 6HR MAX TEMP:  88; 6HR PCP:  0.63;

GULFPORT       CLEAR     87  73  62 S5        29.97S
6HR MIN TEMP:  77; 6HR MAX TEMP:  90; 6HR PCP:  0.71;

BILOXI         CLEAR     88  76  69 S9        29.98S HX  98
6HR MIN TEMP:  85; 6HR MAX TEMP:  92; 6HR PCP: TRACE;

PASCAGOULA     CLEAR     85  77  77 VRB3      29.99S HX  95
6HR MIN TEMP:  79; 6HR MAX TEMP:  92; 6HR PCP:  0.01;

STENNIS ARPT*  MOSUNNY   86  72  62 S5        29.98F

$$

COASTAL OBSERVATIONS
LAKE AND NEARSHORE STATIONS

STATION/POSITION TIME  TEMP    WIND        PRES    WAVE
                       AIR SEA DIR/SP/G            HT/PER
                 (UTC) (F)     (DEG/KT/KT) (MB)    (FT/S)
WAVELAND YACHT   2300      87                N/A
GRAND ISLE       2300      89                N/A
NEW CANAL        2300      89                N/A
SHELL BEACH      2300      89                N/A

OFFSHORE STATIONS

STATION/POSITION TIME  TEMP    WIND        PRES    WAVE
                       AIR SEA DIR/SP/G            HT/PER
                 (UTC) (F)     (DEG/KT/KT) (MB)    (FT/S)
64 S DAUPHIN ISL 2300   85 88  170/  8/ 10 1015.6

$$





USA.gov is the U.S. government's official web portal to all federal, state and local government web resources and services.